Poplar Bluff, MO

3:48 PM CDT on September 19, 2019 (GMT -0500)
Poplar Bluff Municipal

Weather History for KPOF - August, 2019

Change the Weather History Date:

Saturday, August 24, 2019

  Actual Average Record
Temperature  
Mean Temperature 73 °F 77 °F  
Max Temperature 78 °F 88 °F 107 °F (1943)
Min Temperature 68 °F 66 °F 51 °F (1920)
Degree Days  
Heating Degree Days 0 0  
Month to date heating degree days 0 0  
Since 1 June heating degree days 0 2  
Since 1 July heating degree days 0 0  
Cooling Degree Days 8 12  
Month to date cooling degree days 354 321  
Year to date cooling degree days 1332 1270  
Since 1 June cooling degree days 1118 1106  
Growing Degree Days 23 (Base 50)    
Moisture  
Dew Point 63 °F    
Average Humidity 74    
Maximum Humidity 84    
Minimum Humidity 64    
Precipitation  
Precipitation T in 0.13 in 2.60 in (1977)
Month to date precipitation 4.22 2.61  
Year to date precipitation 52.68 30.40  
Sea Level Pressure  
Sea Level Pressure 30.05 in    
Wind  
Wind Speed 6 mph ()    
Max Wind Speed 14 mph    
Max Gust Speed 21 mph    
Visibility 10.0 miles    
Events Rain    
T = Trace of Precipitation, MM = Missing Value Source: Averaged Metar Reports

Daily Weather History Graph

Daily Weather History Graph

Search for Another Location

Airport or City:

Astronomy

Aug. 24, 2019 Rise Set
Actual Time 6:25 AM CDT 7:41 PM CDT
Civil Twilight 5:58 AM CDT 8:07 PM CDT
Nautical Twilight 5:26 AM CDT 8:39 PM CDT
Astronomical Twilight 4:52 AM CDT 9:13 PM CDT
Moon 12:21 AM CDT (8/24) 2:52 PM CDT (8/24)
Length of Visible Light 14h 09m
Length of Day
13h 15m
Last Quarter, 39% of the Moon is Illuminated
Aug 24
Last Quarter
Aug 30
New
Sep 5
First Quarter
Sep 13
Full
Sep 21
Last Quarter

Hourly Weather History & Observations

Time (CDT) Temp. Dew Point Humidity Pressure Visibility Wind Dir Wind Speed Gust Speed Precip Events Conditions
12:53 AM 71.1 °F 61.0 °F 70% 30.05 in 10.0 mi ENE 9.2 mph - N/A   Clear
1:53 AM 69.1 °F 62.1 °F 78% 30.05 in 10.0 mi NE 6.9 mph - N/A   Clear
2:53 AM 69.1 °F 62.1 °F 78% 30.06 in 10.0 mi NE 6.9 mph - N/A   Clear
3:53 AM 68.0 °F 62.1 °F 81% 30.06 in 10.0 mi NE 4.6 mph - N/A   Clear
4:53 AM 69.1 °F 63.0 °F 81% 30.07 in 10.0 mi NE 4.6 mph - N/A   Mostly Cloudy
5:53 AM 68.0 °F 63.0 °F 84% 30.06 in 10.0 mi NE 5.8 mph - N/A   Overcast
6:53 AM 68.0 °F 63.0 °F 84% 30.09 in 10.0 mi NE 8.1 mph - N/A   Overcast
7:53 AM 69.1 °F 62.1 °F 78% 30.08 in 10.0 mi NE 9.2 mph - N/A   Scattered Clouds
8:53 AM 70.0 °F 62.1 °F 76% 30.09 in 10.0 mi ENE 8.1 mph - N/A   Overcast
9:53 AM 73.0 °F 62.1 °F 68% 30.09 in 10.0 mi NE 10.4 mph - N/A   Mostly Cloudy
10:53 AM 75.0 °F 63.0 °F 66% 30.08 in 10.0 mi ENE 10.4 mph 18.4 mph N/A   Clear
11:53 AM 75.0 °F 62.1 °F 64% 30.07 in 10.0 mi ENE 10.4 mph 20.7 mph N/A   Mostly Cloudy
1:53 PM 75.9 °F 64.0 °F 67% 30.06 in 10.0 mi NE 6.9 mph - N/A   Clear
2:53 PM 77.0 °F 64.0 °F 64% 30.04 in 10.0 mi NE 8.1 mph - N/A   Scattered Clouds
3:53 PM 75.0 °F 64.9 °F 71% 30.01 in 10.0 mi NE 9.2 mph - 0.00 in Rain Light Rain
4:53 PM 77.0 °F 64.0 °F 64% 30.01 in 10.0 mi ENE 6.9 mph - 0.00 in   Clear
5:53 PM 77.0 °F 64.0 °F 64% 30.01 in 10.0 mi ENE 8.1 mph - N/A   Clear
6:53 PM 75.0 °F 64.0 °F 69% 30.01 in 10.0 mi ENE 8.1 mph - N/A   Clear
7:53 PM 73.0 °F 64.0 °F 73% 30.03 in 10.0 mi NE 4.6 mph - N/A   Clear
8:53 PM 72.0 °F 64.0 °F 76% 30.04 in 10.0 mi NE 4.6 mph - N/A   Mostly Cloudy
9:53 PM 71.1 °F 64.0 °F 78% 30.04 in 10.0 mi NNE 3.5 mph - N/A   Partly Cloudy
10:53 PM 70.0 °F 63.0 °F 78% 30.03 in 10.0 mi NNE 5.8 mph - N/A   Mostly Cloudy
11:53 PM 70.0 °F 64.0 °F 81% 30.04 in 10.0 mi NE 4.6 mph - N/A   Overcast